Location: East Arcadia
(34.1056°N, 118.0176°W)
Time: 02:37:21
(UTC+00:00)

Cosmos 1484 Rocket - Pass Details

Date: 01 April 2023
Orbit: 493 x 543 km, 97.5° (Epoch: 08 June)

Event Time Altitude Azimuth Distance (km) Brightness Sun altitude
Rises 11:58:34 0° 11° (N) 2,651 6.7 -21.1°
Reaches altitude 10° 12:00:39 10° 10° (N) 1,767 5.8 -20.7°
Maximum altitude 12:04:28 85° 285° (WNW) 537 2.6 -20.0°
Enters shadow 12:05:42 42° 197° (SSW) 766 3.2 -19.7°
